Baltimore, MD

3:57 PM EDT on September 24, 2017 (GMT -0400)
Baltimore-Washington International

Weather History for KBWI - July, 2006

Change the Weather History Date:

Saturday, July 15, 2006

  Actual Average Record
Temperature  
Mean Temperature 82 °F 77 °F  
Max Temperature 91 °F 88 °F 102 °F (1995)
Min Temperature 73 °F 67 °F 57 °F (1999)
Degree Days  
Heating Degree Days 0 0  
Month to date heating degree days 0  
Since 1 June heating degree days 15  
Since 1 July heating degree days 0  
Cooling Degree Days 16 12  
Month to date cooling degree days 178  
Year to date cooling degree days 500  
Since 1 June cooling degree days 416  
Growing Degree Days 32 (Base 50)    
Moisture  
Dew Point 73 °F    
Average Humidity 80    
Maximum Humidity 96    
Minimum Humidity 53    
Precipitation  
Precipitation 0.00 in 0.14 in 2.20 in (1875)
Month to date precipitation 1.91  
Year to date precipitation 22.40  
Snow  
Snow 0.00 in 0.00 in - ()
Month to date snowfall 0.0  
Since 1 July snowfall 0.0  
Snow Depth -    
Sea Level Pressure  
Sea Level Pressure 29.93 in    
Wind  
Wind Speed 3 mph (WSW)    
Max Wind Speed 15 mph    
Max Gust Speed -    
Visibility 5 miles    
Events Rain    
T = Trace of Precipitation, MM = Missing Value Source: NWS Daily Summary

Daily Weather History Graph

Daily Weather History Graph

Search for Another Location

Airport or City:

Trip Planner

Search our weather history database for the weather conditions in past years. The results will help you decide how hot, cold, wet, or windy it might be!

Date:

Astronomy

Jul. 15, 2006 Rise Set
Actual Time 5:52 AM EDT 8:32 PM EDT
Civil Twilight 5:21 AM EDT 9:03 PM EDT
Nautical Twilight 4:42 AM EDT 9:42 PM EDT
Astronomical Twilight 3:58 AM EDT 10:26 PM EDT
Moon 11:35 PM EDT (7/15) 11:03 AM EDT (7/15)
Length of Visible Light 15h 41m
Length of Day
14h 39m
Waning Gibbous, 74% of the Moon is Illuminated
Jul 15
Waning Gibbous
Jul 17
Last Quarter
Jul 25
New
Aug 2
First Quarter
Aug 9
Full

Hourly Weather History & Observations

Time (EDT) Temp. Heat Index Dew Point Humidity Pressure Visibility Wind Dir Wind Speed Gust Speed Precip Events Conditions
12:54 AM 77.0 °F - 73.9 °F 90% 29.97 in 5.0 mi Calm Calm - N/A   Scattered Clouds
1:54 AM 75.0 °F - 73.9 °F 96% 29.97 in 4.0 mi South 3.5 mph - N/A   Mostly Cloudy
2:54 AM 75.9 °F - 73.0 °F 91% 29.96 in 4.0 mi Calm Calm - N/A   Mostly Cloudy
3:54 AM 73.9 °F - 72.0 °F 93% 29.95 in 2.5 mi Calm Calm - N/A   Mostly Cloudy
4:54 AM 73.9 °F - 72.0 °F 93% 29.94 in 2.5 mi Calm Calm - N/A   Mostly Cloudy
5:54 AM 73.9 °F - 72.0 °F 93% 29.94 in 2.5 mi Calm Calm - N/A   Scattered Clouds
6:54 AM 75.0 °F - 73.0 °F 94% 29.95 in 2.5 mi Calm Calm - N/A   Mostly Cloudy
7:54 AM 77.0 °F - 73.9 °F 90% 29.95 in 2.5 mi Calm Calm - N/A   Overcast
8:54 AM 77.0 °F - 73.9 °F 90% 29.96 in 2.0 mi WSW 4.6 mph - N/A   Overcast
9:54 AM 78.1 °F - 73.9 °F 87% 29.96 in 2.0 mi South 3.5 mph - N/A   Overcast
10:54 AM 79.0 °F - 75.0 °F 88% 29.95 in 2.5 mi SSW 6.9 mph - N/A   Overcast
11:54 AM 81.0 °F 86.7 °F 75.0 °F 82% 29.94 in 3.0 mi SW 5.8 mph - N/A   Overcast
12:54 PM 84.0 °F 90.2 °F 73.0 °F 69% 29.93 in 6.0 mi WSW 8.1 mph - N/A   Mostly Cloudy
1:54 PM 87.1 °F 94.5 °F 73.0 °F 63% 29.91 in 8.0 mi WNW 10.4 mph - N/A   Mostly Cloudy
2:54 PM 90.0 °F 96.9 °F 72.0 °F 55% 29.89 in 8.0 mi Variable 5.8 mph - N/A   Scattered Clouds
3:54 PM 87.1 °F 93.6 °F 72.0 °F 61% 29.88 in 7.0 mi West 15.0 mph - 0.00 in Rain Light Rain
4:54 PM 90.0 °F 96.9 °F 72.0 °F 55% 29.87 in 9.0 mi WNW 11.5 mph - 0.00 in   Scattered Clouds
5:54 PM 89.1 °F 94.1 °F 70.0 °F 53% 29.89 in 8.0 mi NNW 9.2 mph - N/A   Mostly Cloudy
6:54 PM 84.0 °F 90.2 °F 73.0 °F 69% 29.89 in 7.0 mi ENE 6.9 mph - N/A   Mostly Cloudy
7:54 PM 82.9 °F 88.8 °F 73.0 °F 72% 29.90 in 8.0 mi Variable 4.6 mph - N/A   Mostly Cloudy
8:54 PM 81.0 °F 85.8 °F 73.0 °F 77% 29.91 in 8.0 mi Calm Calm - N/A   Mostly Cloudy
10:54 PM 78.1 °F - 73.0 °F 84% 29.94 in 8.0 mi WNW 3.5 mph - N/A   Clear
11:54 PM 77.0 °F - 72.0 °F 84% 29.94 in 7.0 mi Calm Calm - N/A   Scattered Clouds